IZ2URO-3 Weather Reports


time (UTC)temp
C
wind
direction
speed
KPH
gust
KPH
rain 1hr
cm
rain 24hr
cm
rain mn
cm
humidity
%
barometer
mb
20260506185900 20 225 3.2 6.4 0.00 0.00 0.00 6 1004.0
20260506185306 21 225 0.0 4.8 0.00 0.00 0.00 5 1004.0
20260506184709 21 270 0.0 8.0 0.00 0.00 0.00 5 1004.0
20260506184114 21 225 1.6 1.6 0.00 0.00 0.00 5 1004.0
20260506183519 22 135 0.0 3.2 0.00 0.00 0.00 5 1004.0
20260506182924 22 135 1.6 3.2 0.00 0.00 0.00 5 1003.0
20260506182329 22 270 3.2 3.2 0.00 0.00 0.00 5 1003.0
20260506181734 23 270 3.2 3.2 0.00 0.00 0.00 5 1003.0
20260506181139 23 315 3.2 3.2 0.00 0.00 0.00 5 1003.0
20260506180543 23 315 3.2 4.8 0.00 0.00 0.00 5 1003.0
20260506175948 24 0 6.4 6.4 0.00 0.00 0.00 5 1003.0
20260506175352 24 0 3.2 4.8 0.00 0.00 0.00 4 1003.0
20260506174757 25 270 1.6 1.6 0.00 0.00 0.00 4 1003.0
20260506174202 25 225 1.6 1.6 0.00 0.00 0.00 4 1003.0
20260506173606 26 225 1.6 3.2 0.00 0.00 0.00 4 1003.0
20260506173011 26 225 3.2 3.2 0.00 0.00 0.00 4 1003.0
20260506172412 26 225 0.0 1.6 0.00 0.00 0.00 4 1003.0
20260506171813 26 225 0.0 1.6 0.00 0.00 0.00 4 1002.0
20260506171215 26 180 3.2 3.2 0.00 0.00 0.00 4 1002.0
20260506170619 25 225 1.6 3.2 0.00 0.00 0.00 4 1002.0
20260506170024 25 225 3.2 4.8 0.00 0.00 0.00 4 1002.0
20260506165429 24 225 6.4 9.7 0.00 0.00 0.00 4 1002.0
20260506164833 24 225 4.8 8.0 0.00 0.00 0.00 4 1002.0
20260506164238 23 225 8.0 9.7 0.00 0.00 0.00 4 1002.0
20260506163644 23 180 9.7 9.7 0.00 0.00 0.00 4 1001.0
20260506163047 23 225 6.4 8.0 0.00 0.00 0.00 4 1001.0
20260506162452 23 225 6.4 9.7 0.00 0.00 0.00 4 1001.0
20260506161853 23 225 6.4 8.0 0.00 0.00 0.00 4 1001.0
20260506161258 23 225 4.8 8.0 0.00 0.00 0.00 5 1001.0
20260506160703 23 180 6.4 9.7 0.00 0.00 0.00 4 1001.0
20260506160108 23 225 8.0 9.7 0.00 0.00 0.00 4 1001.0
20260506155512 23 180 6.4 12.9 0.00 0.00 0.00 5 1001.0
20260506154917 22 180 6.4 9.7 0.00 0.00 0.00 5 1001.0
20260506154321 22 225 8.0 9.7 0.00 0.00 0.00 5 1001.0
20260506153726 23 180 9.7 9.7 0.00 0.00 0.00 5 1001.0
20260506153131 23 225 9.7 9.7 0.00 0.00 0.00 5 1001.0
20260506152535 23 225 8.0 9.7 0.00 0.00 0.00 5 1001.0
20260506151937 23 225 9.7 12.9 0.00 0.00 0.00 5 1001.0
20260506151341 23 225 3.2 8.0 0.00 0.00 0.00 5 1001.0
20260506150746 23 225 3.2 11.3 0.00 0.00 0.00 5 1001.0
20260506150151 23 225 8.0 8.0 0.00 0.00 0.00 5 1001.0
20260506145555 23 225 8.0 8.0 0.00 0.00 0.00 5 1001.0
20260506145000 23 225 8.0 8.0 0.00 0.00 0.00 4 1001.0
20260506144401 23 135 8.0 11.3 0.00 0.00 0.00 5 1001.0
20260506143806 24 180 6.4 9.7 0.00 0.00 0.00 5 1002.0
20260506143210 24 180 4.8 8.0 0.00 0.00 0.00 5 1002.0
20260506142615 24 225 6.4 8.0 0.00 0.00 0.00 5 1002.0
20260506142019 24 225 6.4 11.3 0.00 0.00 0.00 5 1002.0
20260506141424 24 225 8.0 8.0 0.00 0.00 0.00 5 1002.0
20260506140828 24 225 4.8 8.0 0.00 0.00 0.00 5 1002.0
20260506140230 24 225 4.8 6.4 0.00 0.00 0.00 5 1002.0
20260506135635 24 225 6.4 8.0 0.00 0.00 0.00 5 1002.0
20260506135036 24 225 4.8 9.7 0.00 0.00 0.00 5 1002.0
20260506134437 24 225 8.0 8.0 0.00 0.00 0.00 5 1002.0
20260506133842 24 225 6.4 8.0 0.00 0.00 0.00 5 1002.0
20260506133247 24 180 6.4 8.0 0.00 0.00 0.00 5 1002.0
20260506132651 24 225 8.0 11.3 0.00 0.00 0.00 5 1002.0
20260506132053 24 225 6.4 6.4 0.00 0.00 0.00 5 1002.0
20260506131458 24 225 6.4 8.0 0.00 0.00 0.00 5 1002.0
20260506130902 24 225 8.0 9.7 0.00 0.00 0.00 5 1002.0
20260506130307 24 180 4.8 9.7 0.00 0.00 0.00 5 1002.0
20260506125712 23 180 19.3 19.3 0.00 0.00 0.00 5 1002.0
20260506125113 23 225 3.2 17.7 0.00 0.00 0.00 5 1002.0
20260506124518 23 180 12.9 16.1 0.00 0.00 0.00 5 1002.0
20260506123923 24 180 8.0 9.7 0.00 0.00 0.00 5 1002.0
20260506123328 23 203 8.0 12.9 0.00 0.00 0.00 5 1002.0
20260506122732 23 180 8.0 12.9 0.00 0.00 0.00 5 1002.0
20260506122137 23 180 6.4 14.5 0.00 0.00 0.00 6 1002.0
20260506121542 23 180 12.9 16.1 0.00 0.00 0.00 6 1002.0
20260506120947 23 225 11.3 16.1 0.00 0.00 0.00 5 1002.0
20260506120352 23 180 14.5 17.7 0.00 0.00 0.00 6 1002.0
20260506115753 23 180 12.9 12.9 0.00 0.00 0.00 6 1002.0
20260506115158 23 225 8.0 9.7 0.00 0.00 0.00 6 1002.0
20260506114603 23 225 4.8 6.4 0.00 0.00 0.00 7 1002.0
20260506114008 23 11.3 11.3 0.00 0.00 0.00 7 1002.0
20260506112859 22 4.8 6.4 0.00 0.00 0.00 8 1002.0
20260506112306 22 135 6.4 6.4 0.00 0.00 0.00 8 1002.0
20260506111709 22 135 4.8 8.0 0.00 0.00 0.00 8 1003.0
20260506111114 21 45 6.4 6.4 0.00 0.00 0.00 8 1003.0
20260506110518 21 4.8 8.0 0.00 0.00 0.00 8 1003.0
20260506105922 21 6.4 8.0 0.00 0.00 0.00 8 1003.0
20260506105327 21 0 6.4 6.4 0.00 0.00 0.00 8 1003.0
20260506104731 21 135 9.7 9.7 0.00 0.00 0.00 8 1003.0
20260506104136 21 135 6.4 11.3 0.00 0.00 0.00 8 1003.0
20260506103540 21 135 9.7 9.7 0.00 0.00 0.00 8 1003.0
20260506102942 21 113 4.8 9.7 0.00 0.00 0.00 8 1003.0
20260506102347 21 135 6.4 9.7 0.00 0.00 0.00 8 1003.0
20260506101752 21 135 9.7 11.3 0.00 0.00 0.00 8 1003.0
20260506101156 21 180 4.8 9.7 0.00 0.00 0.00 8 1003.0
20260506100601 21 4.8 6.4 0.00 0.00 0.00 8 1003.0
20260506100006 21 45 4.8 6.4 0.00 0.00 0.00 9 1003.0
20260506095411 21 135 8.0 8.0 0.00 0.00 0.00 9 1003.0
20260506094812 20 135 8.0 9.7 0.00 0.00 0.00 9 1003.0
20260506094217 20 4.8 9.7 0.00 0.00 0.00 9 1003.0
20260506093622 20 135 11.3 11.3 0.28 0.00 0.00 9 1003.0
20260506093027 19 135 4.8 8.0 0.28 0.00 0.00 9 1003.0
20260506092432 19 8.0 11.3 0.28 0.00 0.00 9 1003.0
20260506091836 18 135 4.8 11.3 0.28 0.00 0.00 10 1003.0
20260506091238 18 3.2 8.0 0.28 0.00 0.00 10 1003.0
20260506090639 18 113 4.8 8.0 0.28 0.00 0.00 10 1003.0
20260506090044 18 135 8.0 9.7 0.28 0.00 0.00 10 1003.0
20260506085448 18 180 8.0 8.0 0.28 0.00 0.00 10 1003.0
20260506084853 18 180 4.8 6.4 0.28 0.00 0.00 10 1003.0
20260506084257 17 8.0 8.0 0.28 0.00 0.00 10 1003.0
20260506083659 17 6.4 6.4 0.28 0.00 0.00 10 1003.0
20260506083103 17 135 1.6 8.0 0.28 0.00 0.00 10 1003.0
20260506082505 17 135 9.7 9.7 0.00 0.00 0.00 10 1003.0
20260506081910 17 180 1.6 6.4 0.00 0.00 0.00 10 1003.0
20260506081315 16 135 4.8 8.0 0.00 0.00 0.00 10 1003.0
20260506080720 16 45 1.6 6.4 0.00 0.00 0.00 10 1003.0
20260506080125 16 45 6.4 9.7 0.00 0.00 0.00 10 1002.0
20260506073144 16 135 4.8 4.8 0.00 0.00 0.00 10 1004.0
20260506072549 16 180 1.6 1.6 0.00 0.00 0.00 10 1003.0
20260506071441 16 45 0.0 3.2 0.00 0.00 0.00 10 1003.0
20260506070846 16 45 0.0 3.2 0.00 0.00 0.00 10 1003.0
20260506070251 16 1.6 3.2 0.00 0.00 0.00 10 1003.0
20260506062117 16 45 3.2 8.0 0.00 0.00 0.00 10 1003.0
20260506061522 16 113 3.2 4.8 0.00 0.00 0.00 10 1003.0
20260506060927 16 180 4.8 6.4 0.00 0.00 0.00 10 1003.0
20260506060331 16 135 9.7 9.7 0.00 0.00 0.00 10 1003.0
20260506051014 16 0.0 1.6 0.00 0.00 0.00 10 1004.0
20260506050418 16 135 0.0 1.6 0.00 0.00 0.00 10 1004.0
20260506044630 16 135 0.0 0.0 0.00 0.00 0.00 10 1004.0
20260506044034 16 0.0 3.2 0.00 0.00 0.00 10 1003.0
20260506043439 15 45 0.0 3.2 0.00 0.00 0.00 10 1003.0
20260506042844 16 0.0 3.2 0.00 0.00 0.00 10 1004.0
20260506042249 15 0.0 1.6 0.00 0.00 0.00 10 1004.0
20260506041652 16 135 0.0 0.0 0.00 0.00 0.00 10 1004.0
20260506041056 16 135 0.0 0.0 0.00 0.00 0.00 10 1004.0
20260506040459 16 0.0 0.0 0.00 0.00 0.00 10 1004.0
20260506035903 16 0.0 0.0 0.00 0.00 0.00 10 1004.0
20260506035307 16 135 0.0 1.6 0.00 0.00 0.00 9 1004.0
20260506034711 16 1.6 1.6 0.00 0.00 0.00 9 1004.0
20260506033548 16 225 0.0 0.0 0.00 0.00 0.00 9 1004.0
20260506032952 16 180 0.0 0.0 0.00 0.00 0.00 9 1005.0
20260506032356 16 135 0.0 0.0 0.00 0.00 0.00 9 1005.0
20260506031800 16 135 0.0 0.0 0.00 0.00 0.00 9 1005.0
20260506031204 16 135 0.0 1.6 0.00 0.00 0.00 9 1005.0
20260506030608 16 135 0.0 0.0 0.00 0.00 0.00 9 1005.0
20260506030011 16 135 0.0 0.0 0.00 0.00 0.00 9 1005.0
20260506024902 16 0.0 0.0 0.00 0.00 0.00 9 1005.0
20260506023113 16 180 0.0 0.0 0.00 0.00 0.00 9 1005.0
20260506022516 16 180 0.0 0.0 0.00 0.00 0.00 9 1006.0
20260506020725 16 135 0.0 0.0 0.00 0.00 0.00 9 1006.0
20260506020129 16 135 0.0 0.0 0.00 0.00 0.00 9 1006.0
20260506014340 16 180 0.0 0.0 0.00 0.00 0.00 9 1006.0
20260506012549 16 135 0.0 0.0 0.00 0.00 0.00 10 1006.0
20260506011440 16 180 0.0 0.0 0.00 0.00 0.00 10 1006.0
20260506010844 16 180 0.0 0.0 0.00 0.00 0.00 10 1006.0
20260506010248 16 180 0.0 0.0 0.00 0.00 0.00 10 1006.0
20260506005649 16 180 0.0 0.0 0.00 0.00 0.00 10 1006.0
20260506005053 16 180 0.0 0.0 0.00 0.00 0.00 9 1006.0
20260506004456 16 180 1.6 1.6 0.00 0.00 0.00 9 1006.0
20260506003901 16 45 0.0 1.6 0.00 0.00 0.00 9 1006.0
20260506003304 16 45 0.0 0.0 0.00 0.00 0.00 9 1006.0
20260506002709 16 45 0.0 0.0 0.00 0.00 0.00 9 1006.0
20260506002113 16 0 0.0 0.0 0.00 0.00 0.00 9 1006.0
20260506001515 16 0 0.0 0.0 0.00 0.00 0.00 9 1006.0
20260506000920 16 0 0.0 0.0 0.00 0.00 0.00 9 1006.0
20260506000325 16 45 0.0 0.0 0.00 0.00 0.00 9 1006.0
20260505235730 16 113 0.0 0.0 0.00 0.00 0.00 9 1007.0
20260505235134 16 113 0.0 0.0 0.00 0.00 0.00 9 1007.0
20260505234538 16 180 0.0 0.0 0.00 0.00 0.00 9 1007.0
20260505233942 16 180 0.0 0.0 0.00 0.00 0.00 9 1007.0
20260505232833 16 180 0.0 0.0 0.00 0.00 0.00 9 1007.0
20260505232238 16 45 0.0 0.0 0.00 0.00 0.00 9 1007.0
20260505231622 16 225 0.0 0.0 0.00 0.00 0.00 9 1007.0
20260505231027 16 270 0.0 0.0 0.00 0.00 0.00 9 1007.0
20260505230431 16 270 0.0 0.0 0.00 0.00 0.00 9 1007.0
20260505225836 16 270 0.0 0.0 0.00 0.00 0.00 9 1007.0
20260505225241 16 270 0.0 0.0 0.00 0.00 0.00 9 1007.0
20260505224645 16 180 0.0 0.0 0.00 0.00 0.00 9 1007.0
20260505224050 17 45 0.0 0.0 0.00 0.00 0.00 9 1007.0
20260505223455 17 0 1.6 3.2 0.00 0.00 0.00 9 1007.0
20260505222900 17 315 3.2 3.2 0.00 0.00 0.00 9 1007.0
20260505222306 17 0 3.2 4.8 0.00 0.00 0.00 9 1007.0
20260505221710 17 0 3.2 4.8 0.00 0.00 0.00 9 1007.0
20260505221114 17 0 4.8 4.8 0.00 0.00 0.00 9 1007.0
20260505220519 17 0 0.0 0.0 0.00 0.00 0.00 9 1007.0
20260505215924 17 45 0.0 0.0 0.00 0.00 0.00 8 1007.0
20260505215328 17 45 0.0 0.0 0.00 0.00 0.00 8 1007.0
20260505214730 17 0.0 0.0 0.00 0.00 0.00 8 1007.0
20260505213621 17 0.0 0.0 0.00 0.00 0.00 8 1008.0
20260505212513 17 0.0 0.0 0.00 0.00 0.00 8 1008.0
20260505211404 17 0 1.6 1.6 0.00 0.00 0.00 9 1008.0
20260505210255 17 45 0.0 0.0 0.00 0.00 0.00 9 1008.0
20260505205700 17 45 0.0 1.6 0.00 0.00 0.00 9 1008.0
20260505205105 17 0 3.2 3.2 0.00 0.00 0.00 9 1008.0
20260505204509 17 45 3.2 3.2 0.00 0.00 0.00 9 1008.0
20260505203913 17 45 3.2 3.2 0.00 0.00 0.00 9 1008.0
20260505203318 17 45 3.2 3.2 0.00 0.00 0.00 9 1008.0
20260505202722 17 0 0.0 3.2 0.00 0.00 0.00 8 1008.0
20260505202127 17 0 4.8 4.8 0.00 0.00 0.00 8 1008.0
20260505201532 17 45 1.6 1.6 0.00 0.00 0.00 8 1008.0
20260505200936 17 0 1.6 1.6 0.00 0.00 0.00 8 1008.0
20260505200341 17 0 1.6 1.6 0.00 0.00 0.00 8 1008.0
20260505195742 17 45 1.6 4.8 0.00 0.00 0.00 8 1008.0
20260505195147 18 0 6.4 6.4 0.00 0.00 0.00 8 1008.0
20260505194551 18 45 0.0 3.2 0.00 0.00 0.00 8 1008.0
20260505193956 18 45 3.2 3.2 0.00 0.00 0.00 8 1008.0
20260505193401 18 0 0.0 0.0 0.00 0.00 0.00 8 1008.0
20260505192806 18 135 0.0 0.0 0.00 0.00 0.00 8 1008.0
20260505192208 18 45 0.0 1.6 0.00 0.00 0.00 8 1008.0
20260505191613 18 45 1.6 3.2 0.00 0.00 0.00 8 1008.0
20260505191014 18 0 3.2 3.2 0.00 0.00 0.00 8 1008.0